Torna al catalogo

THORAD AGENA D DEB

AttivoPO
NORAD 4752·DEBRIS·🇺🇸 United States

Lanciato Apr 8, 1970 da Vandenberg Space Force Base

Loading…

Prossimi Passaggi (prossime 24 ore)

TLE

AggiornatoSource: Space-Track

Epoca: Sep 14, 2026, 03:38 UTC

1 04752U 70025DA  26257.15197535  .00002050  00000-0  10277-2 0  9996
2 04752  99.8926  53.0937 0020627 199.1994 160.8402 14.17853706846684

Traccia THORAD AGENA D DEB in tempo reale con AllMySat

Download on the App Store